TimeCDT,TemperatureF,Dew PointF,Humidity,Sea Level PressureIn,VisibilityMPH,Wind Direction,Wind SpeedMPH,Gust SpeedMPH,PrecipitationIn,Events,Conditions,WindDirDegrees,DateUTC
12:53 AM,62.1,55.9,80,30.01,10.0,Calm,Calm,-,N/A,,Clear,0,2013-09-03 05:53:00
1:53 AM,59.0,55.0,87,30.02,10.0,Calm,Calm,-,N/A,,Clear,0,2013-09-03 06:53:00
2:53 AM,59.0,55.0,87,30.01,10.0,Calm,Calm,-,N/A,,Clear,0,2013-09-03 07:53:00
3:53 AM,59.0,55.0,87,30.02,10.0,Calm,Calm,-,N/A,,Clear,0,2013-09-03 08:53:00
4:53 AM,59.0,54.0,83,30.02,10.0,Calm,Calm,-,N/A,,Clear,0,2013-09-03 09:53:00
5:53 AM,60.1,55.0,83,30.03,10.0,Calm,Calm,-,N/A,,Clear,0,2013-09-03 10:53:00
6:53 AM,60.1,55.0,83,30.05,10.0,Calm,Calm,-,N/A,,Mostly Cloudy,0,2013-09-03 11:53:00
7:53 AM,63.0,57.0,81,30.07,10.0,Calm,Calm,-,N/A,,Mostly Cloudy,0,2013-09-03 12:53:00
8:53 AM,71.1,59.0,66,30.08,10.0,South,6.9,-,N/A,,Overcast,170,2013-09-03 13:53:00
9:53 AM,75.9,59.0,56,30.08,10.0,SSW,6.9,-,N/A,,Clear,200,2013-09-03 14:53:00
10:53 AM,80.1,57.9,47,30.08,10.0,SSW,11.5,-,N/A,,Partly Cloudy,200,2013-09-03 15:53:00
11:53 AM,82.9,57.0,41,30.07,10.0,Variable,5.8,-,N/A,,Clear,0,2013-09-03 16:53:00
12:53 PM,86.0,57.0,37,30.05,10.0,SSE,5.8,-,N/A,,Clear,160,2013-09-03 17:53:00
1:53 PM,89.1,55.9,32,30.03,10.0,ESE,6.9,-,N/A,,Clear,120,2013-09-03 18:53:00
2:53 PM,90.0,53.1,28,30.01,10.0,South,9.2,-,N/A,,Clear,170,2013-09-03 19:53:00
3:53 PM,90.0,51.1,26,29.98,10.0,Calm,Calm,-,N/A,,Clear,0,2013-09-03 20:53:00
4:53 PM,91.9,53.1,27,29.97,10.0,SSE,6.9,-,N/A,,Clear,150,2013-09-03 21:53:00
5:53 PM,90.0,53.1,28,29.97,10.0,SE,6.9,-,N/A,,Clear,140,2013-09-03 22:53:00
7:53 PM,82.0,55.9,41,29.96,10.0,ESE,4.6,-,N/A,,Clear,120,2013-09-04 00:53:00
8:53 PM,77.0,55.0,47,29.96,10.0,ESE,6.9,-,N/A,,Clear,120,2013-09-04 01:53:00
9:53 PM,77.0,53.1,43,29.98,10.0,ESE,9.2,-,N/A,,Clear,120,2013-09-04 02:53:00
10:53 PM,75.9,53.1,45,29.99,10.0,SE,10.4,-,N/A,,Clear,130,2013-09-04 03:53:00
11:53 PM,75.0,53.1,46,29.99,10.0,SSE,11.5,-,N/A,,Clear,150,2013-09-04 04:53:00